This is the latest recevied weather packets stored in our database for station/object JA7ZQY-10. If no packets are shown the sender has not sent any weather packets the latest 10 day(s).
| Time | Temp. | Humidity | Pressure | Rain* | Wind** | Luminosity | Snow |
|---|---|---|---|---|---|---|---|
| 1777462356 | 8.89° C | 72% | 1020 hPa | 0 mm | - | - | - |
| 1777461755 | 8.89° C | 72% | 1019.8 hPa | 0 mm | - | - | - |
| 1777461156 | 8.89° C | 71% | 1019.5 hPa | 0 mm | - | - | - |
| 1777460557 | 9.44° C | 71% | 1019.5 hPa | 0 mm | - | - | - |
| 1777459955 | 9.44° C | 70% | 1019.1 hPa | 0 mm | - | - | - |
| 1777459356 | 9.44° C | 70% | 1019.2 hPa | 0 mm | - | - | - |
| 1777458755 | 9.44° C | 69% | 1019 hPa | 0 mm | - | - | - |
| 1777458156 | 9.44° C | 69% | 1019.1 hPa | 0 mm | - | - | - |
| 1777457556 | 10° C | 68% | 1018.7 hPa | 0 mm | - | - | - |
| 1777456955 | 10° C | 66% | 1018.4 hPa | 0 mm | - | - | - |
| 1777456356 | 10.56° C | 65% | 1018.3 hPa | 0 mm | - | - | - |
| 1777455756 | 10.56° C | 65% | 1017.9 hPa | 0 mm | - | - | - |
| 1777455155 | 10.56° C | 65% | 1017.6 hPa | 0 mm | - | - | - |
| 1777454556 | 11.11° C | 64% | 1017.4 hPa | 0 mm | - | - | - |
| 1777453956 | 11.11° C | 63% | 1017.6 hPa | 0 mm | - | - | - |
| 1777453355 | 11.67° C | 62% | 1017.3 hPa | 0 mm | - | - | - |
| 1777452756 | 11.67° C | 60% | 1017.1 hPa | 0 mm | - | - | - |
| 1777452156 | 12.22° C | 61% | 1016.9 hPa | 0 mm | - | - | - |
| 1777451555 | 12.22° C | 55% | 1016.7 hPa | 0 mm | - | - | - |
| 1777450956 | 12.78° C | 54% | 1016.8 hPa | 0 mm | - | - | - |
| 1777450355 | 12.78° C | 53% | 1016.4 hPa | 0 mm | - | - | - |
| 1777449756 | 12.78° C | 52% | 1016.6 hPa | 0 mm | - | - | - |
| 1777449155 | 12.78° C | 51% | 1016.6 hPa | 0 mm | - | - | - |
| 1777448555 | 13.89° C | 50% | 1016.6 hPa | 0 mm | - | - | - |
| 1777447956 | 15° C | 46% | 1016.4 hPa | 0 mm | - | - | - |
* Rain latest hour (hover to see other rain measurements)
** Current wind speed in m/s (hover to see current wind gust speed)